COSMOS 2541

导读

COSMOS 2541(宇宙2541)是独联体(CIS)发射的现役军用卫星,于2019年9月26日在俄罗斯普列谢茨克导弹航天中心发射升空,编号NORAD 44552、COSPAR 2019-065A。当前轨道倾角62.734°,偏心率0.65103,截至2025年4月仍保持 operational 在轨运行状态,属于独联体"宇宙"系列军用卫星序列,承担未公开的军事航天任务。

基本信息
目录编号:
44552
目录名称:
COSMOS 2541
国际标识:
2019-065A
轨道中心:
EARTH
卫星名称:
COSMOS 2541
卫星全名:
--
卫星状态:
在轨 (已飞行2454 天)
发射日期:
2019-09-26 UTC
国别 :
俄罗斯(独联体) (CIS)
星等 :
--
轨道信息
数据来源 国际轨道数据 AOE轨道数据
星历时间 2026-06-14T14:43:31+0800
19小时前
查看轨道信息
2026-06-15T04:00:00+0800
6小时前
查看轨道信息
半长轴 26556.844km 26556.8km
偏心率 0.6491403 0.6491553
轨道倾角 62.714° 62.714°
近地点辐角 272.115° 272.115°
升交点赤经 157.236° 157.183°
平近点角 20.340° 59.794°
近地点 2939.589km 2939.175km
远地点 37417.825km 37418.151km
周期 717.835分钟 717.833分钟
每日圈数 2.006033 2.006038
详细信息
使用方式:
暂无
2D轨道图
3D轨道图
轨道高度分析图
轨道倾角分析图
轨道综合分析图
查看轨道综合分析图